Погода в Садовом

Россия / Челябинская область     55°10′34″N   61°11′13″E
темп.,
°C
ветер,
м/с
пор.,
м/с
влажн.,
%
обл.,
%
осадки,
мм/ч
давл.,
гПа
погр.,
м
30 июня, чт
чт3023:00+9зсз410855 0.0 1008215
02:00+8зсз378866 0.0 1007141
05:00+8зсз368675 0.0 1007110
08:00+13зсз477057 0.0 1007351
11:00+17сз465399 0.0 10071103
14:00+19зсз344259 0.0 10072248
17:00+17з2459100 0.1 1007187
20:00+15ююз1166100 0.3 100824
1 июля, пт
пт123:00+13юв117162 0.3 100911
02:00+12в227786 0.0 101033
05:00+12в128199 0.0 101175
08:00+13всв237481 0.0 1012302
11:00+17всв33627 0.3 1013993
14:00+18в335914 1.0 10131277
17:00+18в226010 2.4 10131268
20:00+17всв23735 0.5 101365
2 июля, сб
сб223:00+13вюв22865 1.0 101429
02:00+12ю00857 0.0 101310
05:00+11з128922 0.0 101419
08:00+15сз117771 0.0 1014201
11:00+19всв115623 0.7 1013936
14:00+21св114388 0.1 10122055
17:00+21в224476 0.1 10121740
20:00+19юв235811 0.0 1012195
3 июля, вс
вс323:00+15ююв117315 0.0 101211
02:00+13ююз117870 0.0 101110
05:00+12зюз018041 0.0 101110
08:00+16зюз11665 0.0 1010300
11:00+20з125021 0.0 10091135
14:00+22с334277 0.0 10072231
17:00+21ссв4449100 0.0 10061644
20:00+18с3568100 0.5 1006163
4 июля, пн
пн423:00+14с4109094 1.3 1006309
02:00+12ссв51196100 0.0 1006541
05:00+12ссв51097100 0.2 1007620
08:00+11ссв61195100 0.3 1008739
11:00+13св6108299 0.4 10091032
14:00+15ссв695986 0.1 10101493
17:00+15ссв59588 0.3 10111345
20:00+14ссв4866100 0.1 10121102